Цнори

Грузия     41°37′05″N   45°58′45″E
темп.,
°C
ветер,
м/с
пор.,
м/с
влажн.,
%
обл.,
%
осадки,
мм/ч
давл.,
гПа
погр.,
м
26 октября, вт
вт2601:00+6зюз22589 0.0 102543
04:00+4юз22661 0.0 102628
07:00+3зюз11705 0.0 102811
10:00+8ссв23472 0.0 1029575
13:00+10ссв22423 0.0 10281154
16:00+11всв21391 0.0 10271285
19:00+8в22530 0.0 102923
22:00+6юв35698 0.0 1031131
27 октября, ср
ср2701:00+5юв129063 0.0 1033125
04:00+5вюв118274 0.0 1032318
07:00+5ююв117977 0.0 1032283
10:00+7всв016676 0.0 1033825
13:00+8зюз015881 0.0 10311079
16:00+10зюз01510 0.0 10281037
19:00+7юз11630 0.0 102810
22:00+6зюз01680 0.0 102810
28 октября, чт
чт2801:00+5ссз11720 0.0 102810
04:00+4зсз11750 0.0 102710
07:00+3з12780 0.0 102610
10:00+8з12570 0.0 1025308
13:00+12зсз11410 0.0 1023710
16:00+14с11360 0.0 1021753
19:00+9вюв11520 0.0 102210
22:00+8вюв11560 0.0 102410
29 октября, пт
пт2901:00+7с116149 0.0 102410
04:00+6сз11635 0.0 102310
07:00+6з1161100 0.0 102310
10:00+10ссз0051100 0.0 1024219
13:00+13сз014196 0.0 1022789
16:00+15св113911 0.0 1021881
19:00+10ююв33540 0.0 102323
22:00+8юв22620 0.0 102519
30 октября, сб
сб3001:00+7ссв11651 0.0 102610
04:00+6св01692 0.0 102710
07:00+5с01744 0.0 102810
10:00+9всв116344 0.0 1029408
13:00+10вюв336878 0.0 1029704
16:00+11юв4465100 0.1 10301018
19:00+8ююв3686100 0.3 1033388
22:00+8вюв2490100 0.8 1034405